Weather History for Banff, AB

Change the Weather History Date:

Thursday, March 21, 2013

  Actual Average Record
Temperature  
Mean Temperature 28 °F -  
Max Temperature 34 °F - - ()
Min Temperature 22 °F - - ()
Degree Days  
Heating Degree Days 36    
Moisture  
Dew Point 22 °F    
Average Humidity 74    
Maximum Humidity 94    
Minimum Humidity 51    
Precipitation  
Precipitation 0.02 in - - ()
Sea Level Pressure  
Sea Level Pressure 29.66 in    
Wind  
Wind Speed 6 mph ()    
Max Wind Speed 9 mph    
Max Gust Speed -    
T = Trace of Precipitation, MM = Missing Value Source: Averaged Metar Reports

Daily Weather History Graph

Daily Weather History Graph

Search for Another Location

Airport:

Trip Planner

Search our weather history database for the weather conditions in past years. The results will help you decide how hot, cold, wet, or windy it might be!

Date:

Astronomy

Mar. 21, 2013 Rise Set
Actual Time 7:41 AM MDT 7:57 PM MDT
Civil Twilight 7:08 AM MDT 8:30 PM MDT
Nautical Twilight 6:29 AM MDT 9:10 PM MDT
Astronomical Twilight 5:48 AM MDT 9:51 PM MDT
Moon 1:59 PM MDT (3/21) 4:39 AM MDT (3/21)
Length of Visible Light 13h 22m
Length of Day
12h 15m
Waxing Gibbous, 69% of the Moon is Illuminated
Mar 21
Waxing Gibbous
Mar 27
Full
Apr 2
Last Quarter
Apr 10
New
Apr 18
First Quarter

Hourly Weather History & Observations

Time (MDT) Temp. Windchill Dew Point Humidity Pressure Visibility Wind Dir Wind Speed Gust Speed Precip Events Conditions
12:00 AM 34.3 °F 27.7 °F 31.6 °F 90% 29.37 in - SW 8.1 mph - N/A   Unknown
1:00 AM 31.6 °F 25.1 °F 30.2 °F 94% 29.42 in - WSW 6.9 mph - 0.01 in   Unknown
2:00 AM 29.1 °F 25.4 °F 26.6 °F 90% 29.45 in - West 3.5 mph - N/A   Unknown
3:00 AM 29.3 °F 23.2 °F 26.2 °F 88% 29.45 in - WSW 5.8 mph - N/A   Unknown
4:00 AM 29.1 °F 24.1 °F 25.5 °F 86% 29.47 in - WSW 4.6 mph - N/A   Unknown
5:00 AM 28.9 °F 21.9 °F 24.3 °F 83% 29.50 in - SW 6.9 mph - N/A   Unknown
6:00 AM 28.9 °F 21.9 °F 24.3 °F 83% 29.53 in - WSW 6.9 mph - N/A   Unknown
7:00 AM 28.8 °F 20.9 °F 22.6 °F 78% 29.56 in - WSW 8.1 mph - N/A   Unknown
8:00 AM 28.4 °F 21.2 °F 23.2 °F 81% 29.58 in - WSW 6.9 mph - N/A   Unknown
9:00 AM 28.8 °F 20.9 °F 23.0 °F 79% 29.60 in - SW 8.1 mph - N/A   Unknown
10:00 AM 30.2 °F 24.3 °F 22.1 °F 72% 29.62 in - WSW 5.8 mph - N/A   Unknown
11:00 AM 31.1 °F 24.5 °F 21.6 °F 68% 29.63 in - WSW 6.9 mph - N/A   Unknown
12:00 PM 32.0 °F 24.2 °F 19.8 °F 61% 29.65 in - SW 9.2 mph - N/A   Unknown
1:00 PM 33.1 °F 26.1 °F 18.3 °F 55% 29.68 in - WSW 8.1 mph - N/A   Unknown
2:00 PM 31.3 °F 26.6 °F 20.7 °F 65% 29.71 in - West 4.6 mph - N/A   Unknown
3:00 PM 31.5 °F 23.5 °F 20.8 °F 65% 29.72 in - SW 9.2 mph - 0.01 in   Unknown
4:00 PM 31.6 °F 26.0 °F 18.1 °F 57% 29.73 in - WSW 5.8 mph - N/A   Unknown
5:00 PM 28.8 °F 23.7 °F 23.7 °F 81% 29.77 in - WSW 4.6 mph - N/A   Unknown
6:00 PM 30.4 °F 24.5 °F 18.5 °F 61% 29.80 in - WSW 5.8 mph - N/A   Unknown
7:00 PM 29.3 °F 24.3 °F 13.3 °F 51% 29.84 in - West 4.6 mph - N/A   Unknown
8:00 PM 27.7 °F 20.4 °F 13.6 °F 56% 29.87 in - NNW 6.9 mph - N/A   Unknown
9:00 PM 25.5 °F - 18.0 °F 73% 29.90 in - East 2.3 mph - N/A   Unknown
10:00 PM 23.5 °F 16.4 °F 17.8 °F 79% 29.93 in - NE 5.8 mph - N/A   Unknown
11:00 PM 22.6 °F 15.3 °F 17.4 °F 80% 29.95 in - NE 5.8 mph - N/A   Unknown